Location: Newark
(45.0333°N, 18.2865°E)
Time: 07:12:52
(UTC+00:00)

X-37B - Visible Passes

Search period start: 23 September 2021 00:00
Search period end: 03 October 2021 00:00
Orbit: 381 x 393 km, 45.0° (Epoch: 29 August)

Date Brightness Start Highest point End Pass type
(mag) Time Alt. Az. Time Alt. Az. Time Alt. Az.
23 Sep 3.1 02:27:13 16° SE 02:27:13 16° SE 02:28:45 10° ESE visible
23 Sep 1.0 03:59:46 10° WSW 04:02:54 59° SSE 04:06:01 10° E visible
24 Sep 1.4 03:03:52 34° SSW 03:04:35 40° SSE 03:07:35 10° E visible
25 Sep 3.4 02:08:12 15° ESE 02:08:12 15° ESE 02:09:02 10° E visible
25 Sep 0.6 03:40:29 18° WSW 03:42:43 78° SSE 03:45:53 10° E visible
26 Sep 1.1 02:44:46 53° SE 02:44:46 53° SE 02:47:29 10° E visible
27 Sep 0.5 03:21:20 34° W 03:22:34 89° NW 03:25:45 10° E visible
28 Sep 2.5 02:25:37 29° E 02:25:37 29° E 02:27:21 10° E visible
28 Sep 0.5 03:57:54 12° W 04:00:49 84° SSW 04:04:01 10° E visible
29 Sep 0.4 03:02:12 75° W 03:02:26 88° N 03:05:37 10° E visible
30 Sep 3.6 02:06:32 15° E 02:06:32 15° E 02:07:12 10° E visible
30 Sep 0.6 03:38:49 22° W 03:40:40 66° SSW 03:43:49 10° ESE visible
01 Oct 1.6 02:43:12 43° ESE 02:43:12 43° ESE 02:45:28 10° E visible
01 Oct 1.7 04:15:55 10° W 04:18:44 30° SSW 04:21:34 10° SE visible
02 Oct 0.9 03:19:58 41° SW 03:20:28 46° SSW 03:23:30 10° SE visible
